This is the latest recevied weather packets stored in our database for station/object LA9TLA-1. If no packets are shown the sender has not sent any weather packets the latest 10 day(s).
| Time | Temp. | Humidity | Pressure | Rain* | Wind** | Luminosity | Snow |
|---|---|---|---|---|---|---|---|
| 1777782463 | 5.56° C | 99% | 1021.2 hPa | 0 mm | - | - | - |
| 1777780665 | 5.56° C | 99% | 1021.2 hPa | 0 mm | - | - | - |
| 1777778866 | 5.56° C | 99% | 1021.2 hPa | 0 mm | - | - | - |
| 1777777065 | 5.56° C | 99% | 1021.1 hPa | 0 mm | - | - | - |
| 1777775266 | 6.11° C | 99% | 1021.2 hPa | 0 mm | - | - | - |
| 1777773463 | 6.11° C | 99% | 1021 hPa | 0 mm | - | - | - |
| 1777771666 | 6.11° C | 99% | 1021.1 hPa | 0 mm | - | - | - |
| 1777769864 | 6.11° C | 99% | 1021.1 hPa | 0 mm | - | - | - |
| 1777768063 | 6.67° C | 99% | 1021.1 hPa | 0 mm | - | - | - |
| 1777764468 | 7.22° C | 99% | 1021.1 hPa | 0 mm | - | - | - |
| 1777762666 | 7.22° C | 99% | 1021.2 hPa | 0 mm | - | - | - |
| 1777760864 | 7.22° C | 99% | 1021.2 hPa | 0 mm | - | - | - |
| 1777759064 | 7.78° C | 99% | 1021.2 hPa | 0 mm | - | - | - |
| 1777755465 | 7.78° C | 99% | 1021.2 hPa | 0 mm | - | - | - |
| 1777753665 | 8.33° C | 99% | 1021.2 hPa | 0 mm | - | - | - |
| 1777751865 | 8.89° C | 99% | 1021.1 hPa | 0 mm | - | - | - |
| 1777750066 | 9.44° C | 99% | 1020.7 hPa | 0 mm | - | - | - |
| 1777748267 | 9.44° C | 99% | 1020.7 hPa | 0 mm | - | - | - |
| 1777746466 | 10° C | 99% | 1020.7 hPa | 0 mm | - | - | - |
| 1777744665 | 10° C | 99% | 1020.7 hPa | 0 mm | - | - | - |
| 1777742867 | 10° C | 99% | 1020.5 hPa | 0 mm | - | - | - |
| 1777741067 | 10.56° C | 99% | 1020.4 hPa | 0 mm | - | - | - |
| 1777739265 | 11.67° C | 77% | 1020.6 hPa | 0 mm | - | - | - |
| 1777737466 | 11.67° C | 50% | 1020.6 hPa | 0 mm | - | - | - |
| 1777735664 | 12.22° C | 13% | 1020.9 hPa | 0 mm | - | - | - |
* Rain latest hour (hover to see other rain measurements)
** Current wind speed in m/s (hover to see current wind gust speed)